Change the Weather History Date:

Tuesday, May 14, 2013

  Actual Average Record
Temperature  
Mean Temperature 71 °F 62 °F  
Max Temperature 91 °F 77 °F 97 °F (1984)
Min Temperature 51 °F 47 °F 34 °F (1933)
Degree Days  
Heating Degree Days 0 4  
Month to date heating degree days 94 87  
Since 1 July heating degree days 6024 5512  
Cooling Degree Days 6 1  
Month to date cooling degree days 16 12  
Year to date cooling degree days 17 15  
Growing Degree Days 23 (Base 50)    
Moisture  
Dew Point 29 °F    
Average Humidity 25    
Maximum Humidity 41    
Minimum Humidity 8    
Precipitation  
Precipitation 0.00 in 0.02 in 0.32 in (1965)
Month to date precipitation 0.60 0.31  
Year to date precipitation 1.71 2.93  
Sea Level Pressure  
Sea Level Pressure 29.79 in    
Wind  
Wind Speed 5 mph (WNW)    
Max Wind Speed 16 mph    
Max Gust Speed 20 mph    
Visibility 10 miles    
Events      
T = Trace of Precipitation, MM = Missing Value Source: NWS Daily Summary

Daily Weather History Graph

Daily Weather History Graph

Search for Another Location

Airport or City:

Trip Planner

Search our weather history database for the weather conditions in past years. The results will help you decide how hot, cold, wet, or windy it might be!

Date:

Astronomy

May. 14, 2013 Rise Set
Actual Time 6:07 AM MDT 8:23 PM MDT
Civil Twilight 5:37 AM MDT 8:53 PM MDT
Nautical Twilight 5:00 AM MDT 9:30 PM MDT
Astronomical Twilight 4:20 AM MDT 10:11 PM MDT
Moon 9:50 AM MDT (5/14) No Moon Set
Length of Visible Light 15h 16m
Length of Day
14h 16m
Waxing Crescent, 19% of the Moon is Illuminated
May 14
Waxing Crescent
May 17
First Quarter
May 24
Full
May 31
Last Quarter
Jun 8
New

Hourly Weather History & Observations

Time (MDT) Temp. Dew Point Humidity Pressure Visibility Wind Dir Wind Speed Gust Speed Precip Events Conditions
12:53 AM 63.0 °F 30.0 °F 29% 29.88 in 10.0 mi Calm Calm - N/A   Clear
1:53 AM 62.1 °F 30.0 °F 30% 29.86 in 10.0 mi Calm Calm - N/A   Clear
2:53 AM 59.0 °F 30.9 °F 35% 29.85 in 10.0 mi Calm Calm - N/A   Clear
3:53 AM 60.1 °F 30.9 °F 33% 29.85 in 10.0 mi Calm Calm - N/A   Clear
4:53 AM 59.0 °F 32.0 °F 36% 29.86 in 10.0 mi Calm Calm - N/A   Clear
5:53 AM 55.9 °F 32.0 °F 40% 29.86 in 10.0 mi Calm Calm - N/A   Clear
6:53 AM 57.9 °F 33.1 °F 39% 29.88 in 10.0 mi Calm Calm - N/A   Clear
7:53 AM 66.0 °F 36.0 °F 33% 29.87 in 10.0 mi SE 6.9 mph - N/A   Clear
8:53 AM 72.0 °F 36.0 °F 27% 29.87 in 10.0 mi SE 8.1 mph - N/A   Clear
9:53 AM 75.0 °F 34.0 °F 22% 29.87 in 10.0 mi ESE 8.1 mph - N/A   Clear
10:53 AM 77.0 °F 33.1 °F 20% 29.86 in 10.0 mi Variable 3.5 mph - N/A   Clear
11:53 AM 82.0 °F 32.0 °F 16% 29.84 in 10.0 mi Calm Calm - N/A   Clear
12:53 PM 84.9 °F 30.9 °F 14% 29.82 in 10.0 mi Calm Calm - N/A   Clear
1:53 PM 86.0 °F 28.9 °F 13% 29.78 in 10.0 mi Variable 4.6 mph - N/A   Clear
2:53 PM 90.0 °F 26.1 °F 10% 29.75 in 10.0 mi NNW 12.7 mph - N/A   Clear
3:53 PM 91.0 °F 21.9 °F 8% 29.72 in 10.0 mi WNW 13.8 mph 17.3 mph N/A   Clear
4:53 PM 90.0 °F 19.9 °F 8% 29.70 in 10.0 mi North 3.5 mph - N/A   Clear
5:53 PM 90.0 °F 21.0 °F 8% 29.69 in 10.0 mi Variable 6.9 mph - N/A   Clear
6:53 PM 88.0 °F 21.9 °F 9% 29.68 in 10.0 mi West 9.2 mph - N/A   Clear
7:53 PM 84.0 °F 24.1 °F 11% 29.67 in 10.0 mi WNW 9.2 mph - N/A   Clear
8:53 PM 80.1 °F 27.0 °F 14% 29.69 in 10.0 mi WNW 10.4 mph - N/A   Clear
9:53 PM 75.0 °F 28.9 °F 18% 29.72 in 10.0 mi NW 6.9 mph - N/A   Clear
10:53 PM 73.0 °F 30.9 °F 21% 29.73 in 10.0 mi West 5.8 mph - N/A   Clear
11:53 PM 73.0 °F 30.9 °F 21% 29.72 in 10.0 mi Calm Calm - N/A   Clear